Weather History for Oakland, MD

Change the Weather History Date:

Monday, May 13, 2013

  Actual Average (KMGW) Record (KMGW)
Temperature  
Mean Temperature 38 °F 60 °F  
Max Temperature 44 °F 71 °F 91 °F (2014)
Min Temperature 32 °F 49 °F 31 °F (1996)
Degree Days  
Heating Degree Days 27 6  
Month to date heating degree days 91  
Since 1 July heating degree days 5074  
Cooling Degree Days 0 1  
Month to date cooling degree days 13  
Year to date cooling degree days 29  
Moisture  
Dew Point 25 °F    
Average Humidity 65    
Maximum Humidity 93    
Minimum Humidity 37    
Precipitation  
Precipitation 0.00 in 0.15 in 1.97 in (2011)
Month to date precipitation 1.84  
Year to date precipitation 14.42  
Sea Level Pressure  
Sea Level Pressure 30.06 in    
Wind  
Wind Speed 11 mph (WNW)    
Max Wind Speed 18 mph    
Max Gust Speed 26 mph    
Visibility 10 miles    
Events      
T = Trace of Precipitation, MM = Missing Value Source: NWS Daily Summary

Daily Weather History Graph

Daily Weather History Graph

Search for Another Location

Airport:

Trip Planner

Search our weather history database for the weather conditions in past years. The results will help you decide how hot, cold, wet, or windy it might be!

Date:

Astronomy

May. 13, 2013 Rise Set
Actual Time 6:04 AM EDT 8:23 PM EDT
Civil Twilight 5:34 AM EDT 8:53 PM EDT
Nautical Twilight 4:57 AM EDT 9:30 PM EDT
Astronomical Twilight 4:16 AM EDT 10:12 PM EDT
Moon 8:49 AM EDT (5/13) 11:31 PM EDT (5/13)
Length of Visible Light 15h 18m
Length of Day
14h 18m
Waxing Crescent, 12% of the Moon is Illuminated
May 13
Waxing Crescent
May 18
First Quarter
May 25
Full
May 31
Last Quarter
Jun 8
New

Hourly Weather History & Observations

Time (EDT) Temp. Windchill Dew Point Humidity Pressure Visibility Wind Dir Wind Speed Gust Speed Precip Events Conditions
12:10 AM 35.6 °F 26.6 °F 26.6 °F 70% 30.01 in 10.0 mi West 13.8 mph 18.4 mph N/A   Overcast
12:30 AM 35.6 °F 27.5 °F 28.4 °F 75% 30.01 in 10.0 mi WNW 11.5 mph 17.3 mph N/A   Mostly Cloudy
12:50 AM 35.6 °F 28.6 °F 28.4 °F 75% 30.01 in 10.0 mi West 9.2 mph 18.4 mph N/A   Scattered Clouds
1:10 AM 35.6 °F 27.1 °F 26.6 °F 70% 30.01 in 10.0 mi West 12.7 mph 18.4 mph N/A   Scattered Clouds
1:30 AM 35.6 °F 27.1 °F 26.6 °F 70% 30.01 in 10.0 mi West 12.7 mph 17.3 mph N/A   Mostly Cloudy
1:50 AM 35.6 °F 27.5 °F 26.6 °F 70% 30.00 in 10.0 mi WNW 11.5 mph 21.9 mph N/A   Mostly Cloudy
2:10 AM 35.6 °F 28.6 °F 26.6 °F 70% 30.00 in 10.0 mi WNW 9.2 mph 23.0 mph N/A   Mostly Cloudy
2:30 AM 33.8 °F 24.3 °F 26.6 °F 75% 29.99 in 10.0 mi WNW 13.8 mph 21.9 mph N/A   Scattered Clouds
2:50 AM 33.8 °F 25.3 °F 26.6 °F 75% 30.01 in 10.0 mi West 11.5 mph 17.3 mph N/A   Clear
3:10 AM 33.8 °F 27.7 °F 28.4 °F 81% 30.00 in 10.0 mi WNW 6.9 mph 18.4 mph N/A   Clear
3:30 AM 32.0 °F 24.2 °F 26.6 °F 80% 30.00 in 10.0 mi West 9.2 mph - N/A   Clear
3:50 AM 32.0 °F 23.6 °F 28.4 °F 87% 30.01 in 10.0 mi West 10.4 mph 16.1 mph N/A   Clear
4:10 AM 32.0 °F 24.2 °F 28.4 °F 87% 30.00 in 10.0 mi West 9.2 mph - N/A   Clear
4:30 AM 32.0 °F 24.2 °F 28.4 °F 87% 30.00 in 10.0 mi West 9.2 mph - N/A   Clear
4:50 AM 32.0 °F 24.2 °F 28.4 °F 87% 29.99 in 10.0 mi West 9.2 mph - N/A   Clear
5:10 AM 32.0 °F 23.6 °F 28.4 °F 87% 30.00 in 10.0 mi West 10.4 mph - N/A   Scattered Clouds
5:30 AM 32.0 °F 24.2 °F 26.6 °F 80% 29.99 in 10.0 mi West 9.2 mph - N/A   Scattered Clouds
5:50 AM 32.0 °F 24.2 °F 26.6 °F 80% 30.00 in 10.0 mi West 9.2 mph 16.1 mph N/A   Mostly Cloudy
6:10 AM 32.0 °F 24.8 °F 26.6 °F 80% 30.01 in 10.0 mi West 8.1 mph - N/A   Overcast
6:30 AM 32.0 °F 24.8 °F 26.6 °F 80% 30.01 in 10.0 mi West 8.1 mph - N/A   Overcast
6:50 AM 32.0 °F 24.2 °F 26.6 °F 80% 30.02 in 10.0 mi WNW 9.2 mph 16.1 mph N/A   Overcast
7:10 AM 32.0 °F 24.2 °F 26.6 °F 80% 30.02 in 10.0 mi West 9.2 mph - N/A   Overcast
7:30 AM 32.0 °F 23.6 °F 26.6 °F 80% 30.03 in 10.0 mi West 10.4 mph 20.7 mph N/A   Mostly Cloudy
7:50 AM 32.0 °F 23.0 °F 24.8 °F 75% 30.03 in 10.0 mi WNW 11.5 mph 18.4 mph N/A   Clear
8:10 AM 33.8 °F 26.4 °F 23.0 °F 65% 30.04 in 10.0 mi WNW 9.2 mph 19.6 mph N/A   Clear
8:30 AM 33.8 °F 25.8 °F 23.0 °F 65% 30.04 in 10.0 mi WNW 10.4 mph 16.1 mph N/A   Clear
8:50 AM 33.8 °F 24.3 °F 21.2 °F 60% 30.05 in 10.0 mi WNW 13.8 mph 20.7 mph N/A   Clear
9:10 AM 35.6 °F 28.6 °F 21.2 °F 56% 30.06 in 10.0 mi WNW 9.2 mph 16.1 mph N/A   Clear
9:30 AM 37.4 °F 29.3 °F 19.4 °F 48% 30.06 in 10.0 mi West 12.7 mph 17.3 mph N/A   Clear
9:55 AM 37.4 °F 28.9 °F 19.4 °F 48% 30.06 in 10.0 mi WNW 13.8 mph 20.7 mph N/A   Clear
10:15 AM 37.4 °F 28.5 °F 17.6 °F 45% 30.07 in 10.0 mi WNW 15.0 mph 21.9 mph N/A   Scattered Clouds
10:35 AM 39.2 °F 29.8 °F 17.6 °F 42% 30.07 in 10.0 mi West 18.4 mph 25.3 mph N/A   Scattered Clouds
10:55 AM 39.2 °F 29.8 °F 17.6 °F 42% 30.08 in 10.0 mi West 18.4 mph 26.5 mph N/A   Scattered Clouds
11:15 AM 39.2 °F 31.2 °F 17.6 °F 42% 30.08 in 10.0 mi WNW 13.8 mph 21.9 mph N/A   Mostly Cloudy
11:35 AM 39.2 °F 32.5 °F 19.4 °F 45% 30.08 in 10.0 mi WNW 10.4 mph 18.4 mph N/A   Overcast
11:55 AM 41.0 °F 34.3 °F 19.4 °F 42% 30.08 in 10.0 mi WNW 11.5 mph 24.2 mph N/A   Overcast
12:15 PM 39.2 °F 31.6 °F 19.4 °F 45% 30.08 in 10.0 mi WNW 12.7 mph 23.0 mph N/A   Overcast
12:35 PM 41.0 °F 33.9 °F 19.4 °F 42% 30.08 in 10.0 mi West 12.7 mph 23.0 mph N/A   Overcast
12:55 PM 39.2 °F 30.5 °F 17.6 °F 42% 30.08 in 10.0 mi WNW 16.1 mph 26.5 mph N/A   Overcast
1:15 PM 41.0 °F 33.5 °F 19.4 °F 42% 30.08 in 10.0 mi West 13.8 mph 20.7 mph N/A   Overcast
1:35 PM 41.0 °F 33.5 °F 17.6 °F 39% 30.08 in 10.0 mi West 13.8 mph 23.0 mph N/A   Overcast
1:55 PM 41.0 °F 35.8 °F 17.6 °F 39% 30.08 in 10.0 mi WNW 8.1 mph 16.1 mph N/A   Overcast
2:15 PM 39.2 °F 32.5 °F 17.6 °F 42% 30.08 in 10.0 mi WNW 10.4 mph 18.4 mph N/A   Overcast
2:35 PM 42.8 °F 35.8 °F 19.4 °F 39% 30.07 in 10.0 mi West 13.8 mph 23.0 mph N/A   Mostly Cloudy
2:55 PM 42.8 °F 35.1 °F 19.4 °F 39% 30.07 in 10.0 mi West 16.1 mph 25.3 mph N/A   Mostly Cloudy
3:15 PM 44.6 °F 37.8 °F 19.4 °F 37% 30.07 in 10.0 mi WNW 15.0 mph 23.0 mph N/A   Mostly Cloudy
3:35 PM 41.0 °F 35.2 °F 19.4 °F 42% 30.07 in 10.0 mi NW 9.2 mph 18.4 mph N/A   Overcast
4:35 PM 41.0 °F 33.9 °F 21.2 °F 45% 30.08 in 10.0 mi WNW 12.7 mph 26.5 mph N/A   Mostly Cloudy
4:55 PM 41.0 °F 35.8 °F 24.8 °F 53% 30.07 in 10.0 mi WNW 8.1 mph - N/A   Mostly Cloudy
5:15 PM 41.0 °F 34.7 °F 23.0 °F 49% 30.07 in 10.0 mi West 10.4 mph 19.6 mph N/A   Mostly Cloudy
5:35 PM 41.0 °F 33.1 °F 24.8 °F 53% 30.07 in 10.0 mi West 15.0 mph 23.0 mph N/A   Scattered Clouds
5:55 PM 41.0 °F 33.5 °F 26.6 °F 57% 30.06 in 10.0 mi West 13.8 mph 19.6 mph N/A   Mostly Cloudy
6:15 PM 41.0 °F 34.7 °F 28.4 °F 61% 30.06 in 10.0 mi West 10.4 mph 18.4 mph N/A   Scattered Clouds
6:35 PM 41.0 °F 34.7 °F 26.6 °F 57% 30.06 in 10.0 mi WNW 10.4 mph - N/A   Clear
6:55 PM 39.2 °F 32.5 °F 26.6 °F 61% 30.07 in 10.0 mi West 10.4 mph 18.4 mph N/A   Clear
7:55 PM 35.6 °F 29.2 °F 28.4 °F 75% 30.08 in 10.0 mi West 8.1 mph - N/A   Overcast
8:15 PM 35.6 °F 29.9 °F 28.4 °F 75% 30.08 in 10.0 mi WNW 6.9 mph - N/A   Mostly Cloudy
8:35 PM 33.8 °F - 32.0 °F 93% 30.09 in 2.5 mi Calm Calm - N/A   Overcast
8:55 PM 33.8 °F 28.6 °F 30.2 °F 87% 30.10 in 10.0 mi West 5.8 mph - N/A   Scattered Clouds
9:15 PM 33.8 °F 27.0 °F 30.2 °F 87% 30.11 in 10.0 mi West 8.1 mph - N/A   Clear
9:35 PM 35.6 °F 29.2 °F 30.2 °F 81% 30.11 in 10.0 mi West 8.1 mph - N/A   Scattered Clouds
9:55 PM 35.6 °F 29.9 °F 28.4 °F 75% 30.12 in 10.0 mi West 6.9 mph - N/A   Clear
10:15 PM 35.6 °F 29.2 °F 28.4 °F 75% 30.13 in 10.0 mi West 8.1 mph - N/A   Clear
10:35 PM 35.6 °F 30.7 °F 30.2 °F 81% 30.13 in 10.0 mi West 5.8 mph - N/A   Clear
10:55 PM 33.8 °F 27.7 °F 28.4 °F 81% 30.13 in 10.0 mi WNW 6.9 mph - N/A   Clear
11:15 PM 33.8 °F 27.7 °F 28.4 °F 81% 30.13 in 10.0 mi WNW 6.9 mph - N/A   Clear
11:35 PM 33.8 °F 29.6 °F 26.6 °F 75% 30.14 in 10.0 mi WNW 4.6 mph - N/A   Clear
11:55 PM 33.8 °F 29.6 °F 26.6 °F 75% 30.14 in 10.0 mi NW 4.6 mph - N/A   Clear